Weather past 2 weeks in Saint-Pierre, Saint Pierre and Miquelon

Now
48 °F

Partly sunny.


Feels Like: 44 °F
Forecast: 47 / 49 °F
Wind: 10 mph from Northwest

Location: Saint-Pierre

Current Time: Oct 31, 2014 at 3:14:28 PM

Latest Report: Oct 31, 2014 at 2:00 PM


Visibility: N/A

Pressure: 29.98 "Hg

Humidity: 66%

Dew point: 37 °F

Location of Saint-PierreLocation

Historic Weather in Saint-Pierre — Graph

°F

Saint-Pierre temperature yesterday

Maximum temperature yesterday: 57 °F (at 1:00 PM)
Minimum temperature yesterday: 50 °F (at 12:00 AM)
Average temperature yesterday: 54 °F

Past Weeks' High & Low Weather Summary

 TemperatureHumidityPressure
High61 °F (Oct 20, 8:00 AM)100% (Oct 18, 6:00 AM)30.45 "Hg (Oct 18, 6:00 AM)
Low41 °F (Oct 29, 6:00 AM)62% (Oct 21, 10:00 AM)29.15 "Hg (Oct 27, 10:00 AM)
Average51 °F87%29.80 "Hg
* Reported Oct 16 2:00 PM — Oct 31 2:00 PM, Saint-Pierre, Weather by CustomWeather, © 2014

Note: Actual official high and low records may vary slightly from our data, if they occured in-between our weather recording intervals... More about our weather records

Advertising

Saint-Pierre weather history for previous 24 hours

 ConditionsComfort  
Time TempWeatherWind HumidityBarometerVisibility
2:00 PM
Oct 31
48 °FPartly sunny.10 mph66%29.98 "HgN/A
1:00 PM48 °FPartly sunny.13 mph66%29.98 "HgN/A
12:00 PM48 °FPartly sunny.12 mph71%29.98 "HgN/A
11:00 AM48 °FPartly sunny.13 mph62%29.95 "HgN/A
10:00 AM46 °FPartly sunny.13 mph71%29.92 "HgN/A
9:00 AM45 °FPassing clouds.9 mph76%29.89 "HgN/A
8:00 AM43 °FPassing clouds.10 mph81%29.86 "HgN/A
7:00 AM43 °FPassing clouds.8 mph81%29.86 "HgN/A
6:00 AM45 °FPassing clouds.10 mph81%29.83 "HgN/A
5:00 AM45 °FPassing clouds.6 mph87%29.83 "HgN/A
4:00 AM46 °FPartly cloudy.8 mph82%29.80 "HgN/A
7:00 PM
Oct 30
52 °FLow clouds.6 mph94%29.71 "HgN/A
6:00 PM52 °FFog.8 mph100%29.71 "Hg1 mi
5:00 PM54 °FFog.13 mph94%29.71 "Hg1 mi
4:00 PM54 °FLight rain. Fog.17 mph100%29.68 "Hg1 mi
3:00 PM55 °FFog.21 mph94%29.68 "Hg2 mi
Weather by CustomWeather, © 2014

See weather overviewHow to use our weather pages